| time (UTC) | temp F | wind direction | speed MPH | gust MPH | rain 1hr in | rain 24hr in | rain mn in | humidity % | barometer mb |
| 20260507183918 | 51 | 343 | 1.0 | 4.0 | 0.00 | 0.00 | 0.00 | 44 | 1006.5 |
| 20260507183421 | 52 | 306 | 0.0 | 7.0 | 0.00 | 0.00 | 0.00 | 37 | 1006.4 |
| 20260507182919 | 52 | 244 | 0.0 | 4.0 | 0.00 | 0.00 | 0.00 | 42 | 1006.5 |
| 20260507182418 | 52 | 240 | 1.0 | 7.0 | 0.00 | 0.00 | 0.00 | 42 | 1006.5 |
| 20260507181920 | 52 | 341 | 1.0 | 5.0 | 0.00 | 0.00 | 0.00 | 42 | 1006.4 |
| 20260507181424 | 51 | 284 | 0.0 | 6.0 | 0.00 | 0.00 | 0.00 | 42 | 1006.5 |
| 20260507180922 | 51 | 340 | 1.0 | 8.0 | 0.00 | 0.00 | 0.00 | 39 | 1006.6 |
| 20260507180428 | 51 | 274 | 1.0 | 4.0 | 0.00 | 0.00 | 0.00 | 46 | 1006.5 |
| 20260507175920 | 51 | 289 | 0.0 | 4.0 | 0.00 | 0.00 | 0.00 | 40 | 1006.5 |
| 20260507175424 | 51 | 345 | 0.0 | 4.0 | 0.00 | 0.00 | 0.00 | 38 | 1006.6 |
| 20260507174922 | 51 | 330 | 3.0 | 5.0 | 0.00 | 0.00 | 0.00 | 41 | 1006.5 |
| 20260507174417 | 51 | 328 | 1.0 | 7.0 | 0.00 | 0.00 | 0.00 | 47 | 1006.5 |
| 20260507173924 | 51 | 359 | 5.0 | 7.0 | 0.00 | 0.00 | 0.00 | 41 | 1006.6 |
| 20260507173417 | 51 | 224 | 4.0 | 6.0 | 0.00 | 0.00 | 0.00 | 40 | 1006.7 |
| 20260507172917 | 51 | 209 | 2.0 | 6.0 | 0.00 | 0.00 | 0.00 | 43 | 1006.6 |
| 20260507172417 | 51 | 257 | 2.0 | 7.0 | 0.00 | 0.00 | 0.00 | 43 | 1006.6 |
| 20260507171920 | 51 | 266 | 0.0 | 4.0 | 0.00 | 0.00 | 0.00 | 42 | 1006.7 |
| 20260507171418 | 51 | 241 | 0.0 | 4.0 | 0.00 | 0.00 | 0.00 | 41 | 1006.7 |
| 20260507170917 | 52 | 251 | 4.0 | 9.0 | 0.00 | 0.00 | 0.00 | 44 | 1006.8 |
| 20260507170421 | 52 | 238 | 2.0 | 5.0 | 0.00 | 0.00 | 0.00 | 41 | 1006.8 |
| 20260507165918 | 52 | 70 | 2.0 | 5.0 | 0.00 | 0.00 | 0.00 | 43 | 1006.9 |
| 20260507165417 | 52 | 316 | 1.0 | 11.0 | 0.00 | 0.00 | 0.00 | 48 | 1006.9 |
| 20260507164920 | 52 | 213 | 1.0 | 6.0 | 0.00 | 0.00 | 0.00 | 42 | 1007.0 |
| 20260507164417 | 52 | 345 | 0.0 | 5.0 | 0.00 | 0.00 | 0.00 | 44 | 1007.0 |
| 20260507163917 | 52 | 235 | 3.0 | 7.0 | 0.00 | 0.00 | 0.00 | 50 | 1007.0 |
| 20260507163418 | 52 | 239 | 2.0 | 3.0 | 0.00 | 0.00 | 0.00 | 45 | 1007.0 |
| 20260507162920 | 52 | 295 | 0.0 | 2.0 | 0.00 | 0.00 | 0.00 | 49 | 1007.1 |
| 20260507162418 | 51 | 291 | 1.0 | 5.0 | 0.00 | 0.00 | 0.00 | 49 | 1007.2 |
| 20260507161917 | 51 | 337 | 1.0 | 5.0 | 0.00 | 0.00 | 0.00 | 47 | 1007.3 |
| 20260507161420 | 51 | 339 | 4.0 | 4.0 | 0.00 | 0.00 | 0.00 | 47 | 1007.4 |
| 20260507160921 | 51 | 256 | 2.0 | 5.0 | 0.00 | 0.00 | 0.00 | 52 | 1007.4 |
| 20260507160420 | 51 | 176 | 0.0 | 5.0 | 0.00 | 0.00 | 0.00 | 52 | 1007.4 |
| 20260507155918 | 50 | 225 | 0.0 | 4.0 | 0.00 | 0.00 | 0.00 | 48 | 1007.5 |
| 20260507155417 | 50 | 335 | 0.0 | 5.0 | 0.00 | 0.00 | 0.00 | 51 | 1007.5 |
| 20260507154918 | 50 | 228 | 1.0 | 7.0 | 0.00 | 0.00 | 0.00 | 47 | 1007.7 |
| 20260507154417 | 50 | 249 | 0.0 | 7.0 | 0.00 | 0.00 | 0.00 | 53 | 1007.6 |
| 20260507153917 | 50 | 311 | 1.0 | 5.0 | 0.00 | 0.00 | 0.00 | 56 | 1007.6 |
| 20260507153417 | 50 | 237 | 0.0 | 6.0 | 0.00 | 0.00 | 0.00 | 46 | 1007.6 |
| 20260507152917 | 50 | 220 | 1.0 | 6.0 | 0.00 | 0.00 | 0.00 | 48 | 1007.7 |
| 20260507152417 | 49 | 239 | 0.0 | 7.0 | 0.00 | 0.00 | 0.00 | 55 | 1007.7 |
| 20260507151917 | 49 | 181 | 3.0 | 7.0 | 0.00 | 0.00 | 0.00 | 52 | 1007.7 |
| 20260507151417 | 49 | 214 | 1.0 | 5.0 | 0.00 | 0.00 | 0.00 | 58 | 1007.6 |
| 20260507150920 | 49 | 187 | 1.0 | 4.0 | 0.00 | 0.00 | 0.00 | 54 | 1007.8 |
| 20260507150420 | 48 | 180 | 4.0 | 7.0 | 0.00 | 0.00 | 0.00 | 51 | 1007.8 |
| 20260507145920 | 48 | 218 | 2.0 | 9.0 | 0.00 | 0.00 | 0.00 | 58 | 1007.7 |
| 20260507145420 | 48 | 224 | 1.0 | 8.0 | 0.00 | 0.00 | 0.00 | 55 | 1007.7 |
| 20260507144924 | 48 | 10 | 0.0 | 5.0 | 0.00 | 0.00 | 0.00 | 55 | 1007.7 |
| 20260507144417 | 48 | 195 | 0.0 | 5.0 | 0.00 | 0.00 | 0.00 | 60 | 1007.7 |
| 20260507143920 | 48 | 25 | 1.0 | 3.0 | 0.00 | 0.00 | 0.00 | 59 | 1007.6 |
| 20260507143421 | 48 | 210 | 0.0 | 5.0 | 0.00 | 0.00 | 0.00 | 58 | 1007.7 |
| 20260507142917 | 47 | 261 | 0.0 | 3.0 | 0.00 | 0.00 | 0.00 | 61 | 1007.7 |
| 20260507142423 | 47 | 262 | 0.0 | 3.0 | 0.00 | 0.00 | 0.00 | 56 | 1007.8 |
| 20260507141924 | 47 | 341 | 1.0 | 4.0 | 0.00 | 0.00 | 0.00 | 60 | 1007.9 |
| 20260507141421 | 47 | 154 | 2.0 | 4.0 | 0.00 | 0.00 | 0.00 | 62 | 1007.9 |
| 20260507140919 | 47 | 230 | 1.0 | 4.0 | 0.00 | 0.00 | 0.00 | 59 | 1007.8 |
| 20260507140421 | 46 | 182 | 0.0 | 5.0 | 0.00 | 0.00 | 0.00 | 65 | 1007.8 |
| 20260507135919 | 46 | 192 | 2.0 | 5.0 | 0.00 | 0.00 | 0.00 | 61 | 1007.8 |
| 20260507135420 | 46 | 224 | 3.0 | 6.0 | 0.00 | 0.00 | 0.00 | 63 | 1007.9 |
| 20260507134916 | 46 | 220 | 1.0 | 8.0 | 0.00 | 0.00 | 0.00 | 62 | 1007.8 |
| 20260507134420 | 45 | 335 | 1.0 | 5.0 | 0.00 | 0.00 | 0.00 | 68 | 1007.8 |
| 20260507133925 | 45 | 339 | 0.0 | 4.0 | 0.00 | 0.00 | 0.00 | 68 | 1007.7 |
| 20260507133417 | 45 | 222 | 0.0 | 9.0 | 0.00 | 0.00 | 0.00 | 70 | 1007.7 |
| 20260507132917 | 45 | 255 | 1.0 | 4.0 | 0.00 | 0.00 | 0.00 | 70 | 1007.7 |
| 20260507132418 | 44 | 355 | 0.0 | 2.0 | 0.00 | 0.00 | 0.00 | 72 | 1007.7 |
| 20260507131919 | 44 | 350 | 0.0 | 4.0 | 0.00 | 0.00 | 0.00 | 72 | 1007.8 |
| 20260507131422 | 44 | 212 | 5.0 | 6.0 | 0.00 | 0.00 | 0.00 | 76 | 1007.6 |
| 20260507130916 | 43 | 219 | 1.0 | 5.0 | 0.00 | 0.00 | 0.00 | 77 | 1007.6 |
| 20260507130417 | 43 | 249 | 1.0 | 3.0 | 0.00 | 0.00 | 0.00 | 77 | 1007.6 |
| 20260507125919 | 42 | 253 | 0.0 | 3.0 | 0.00 | 0.00 | 0.00 | 79 | 1007.7 |
| 20260507125417 | 42 | 251 | 1.0 | 2.0 | 0.00 | 0.00 | 0.00 | 81 | 1007.7 |
| 20260507124919 | 42 | 280 | 1.0 | 3.0 | 0.00 | 0.00 | 0.00 | 82 | 1007.6 |
| 20260507124416 | 41 | 273 | 0.0 | 4.0 | 0.00 | 0.00 | 0.00 | 82 | 1007.6 |
| 20260507123925 | 41 | 232 | 1.0 | 6.0 | 0.00 | 0.00 | 0.00 | 88 | 1007.6 |
| 20260507123418 | 41 | 241 | 0.0 | 3.0 | 0.00 | 0.00 | 0.00 | 87 | 1007.7 |
| 20260507122920 | 41 | 239 | 0.0 | 4.0 | 0.00 | 0.00 | 0.00 | 88 | 1007.6 |
| 20260507122417 | 41 | 278 | 3.0 | 3.0 | 0.00 | 0.00 | 0.00 | 91 | 1007.7 |
| 20260507121919 | 41 | 212 | 0.0 | 4.0 | 0.00 | 0.00 | 0.00 | 90 | 1007.7 |
| 20260507121423 | 41 | 333 | 0.0 | 4.0 | 0.00 | 0.00 | 0.00 | 91 | 1007.6 |
| 20260507120919 | 42 | 228 | 1.0 | 2.0 | 0.00 | 0.00 | 0.00 | 92 | 1007.5 |
| 20260507120416 | 42 | 228 | 0.0 | 6.0 | 0.00 | 0.00 | 0.00 | 93 | 1007.5 |
| 20260507115919 | 42 | 228 | 0.0 | 6.0 | 0.00 | 0.00 | 0.00 | 93 | 1007.5 |
| 20260507115419 | 42 | 357 | 0.0 | 3.0 | 0.00 | 0.00 | 0.00 | 93 | 1007.4 |
| 20260507114919 | 41 | 8 | 0.0 | 0.0 | 0.00 | 0.00 | 0.00 | 93 | 1007.3 |
| 20260507114419 | 41 | 8 | 0.0 | 0.0 | 0.00 | 0.00 | 0.00 | 93 | 1007.2 |
| 20260507113920 | 42 | 8 | 0.0 | 1.0 | 0.00 | 0.00 | 0.00 | 93 | 1007.1 |
| 20260507113416 | 42 | 8 | 0.0 | 1.0 | 0.00 | 0.00 | 0.00 | 94 | 1007.1 |
| 20260507112916 | 42 | 8 | 0.0 | 1.0 | 0.00 | 0.00 | 0.00 | 94 | 1007.0 |
| 20260507112417 | 42 | 8 | 0.0 | 0.0 | 0.00 | 0.00 | 0.00 | 94 | 1007.0 |
| 20260507111916 | 42 | 8 | 0.0 | 1.0 | 0.00 | 0.00 | 0.00 | 94 | 1007.0 |
| 20260507111419 | 41 | 9 | 0.0 | 0.0 | 0.00 | 0.00 | 0.00 | 94 | 1007.2 |
| 20260507110916 | 41 | 9 | 0.0 | 0.0 | 0.00 | 0.00 | 0.00 | 94 | 1007.3 |
| 20260507110422 | 41 | 9 | 0.0 | 1.0 | 0.00 | 0.00 | 0.00 | 94 | 1007.3 |
| 20260507105922 | 41 | 9 | 0.0 | 0.0 | 0.00 | 0.00 | 0.00 | 94 | 1007.4 |
| 20260507105416 | 41 | 9 | 0.0 | 1.0 | 0.00 | 0.00 | 0.00 | 94 | 1007.2 |
| 20260507104916 | 41 | 9 | 0.0 | 1.0 | 0.00 | 0.00 | 0.00 | 94 | 1007.1 |
| 20260507104416 | 41 | 9 | 0.0 | 0.0 | 0.00 | 0.00 | 0.00 | 94 | 1006.9 |
| 20260507103919 | 41 | 9 | 0.0 | 0.0 | 0.00 | 0.00 | 0.00 | 94 | 1006.9 |
| 20260507103416 | 41 | 9 | 0.0 | 0.0 | 0.00 | 0.00 | 0.00 | 94 | 1006.8 |
| 20260507102917 | 41 | 9 | 0.0 | 0.0 | 0.00 | 0.00 | 0.00 | 94 | 1006.8 |
| 20260507102415 | 41 | 9 | 0.0 | 0.0 | 0.00 | 0.00 | 0.00 | 94 | 1006.8 |
| 20260507101919 | 40 | 9 | 0.0 | 0.0 | 0.00 | 0.00 | 0.00 | 94 | 1006.8 |
| 20260507101419 | 40 | 9 | 0.0 | 0.0 | 0.00 | 0.00 | 0.00 | 94 | 1006.7 |
| 20260507100915 | 40 | 9 | 0.0 | 0.0 | 0.00 | 0.00 | 0.00 | 94 | 1006.7 |
| 20260507100419 | 40 | 9 | 0.0 | 0.0 | 0.00 | 0.00 | 0.00 | 93 | 1006.7 |
| 20260507095916 | 40 | 9 | 0.0 | 1.0 | 0.00 | 0.00 | 0.00 | 93 | 1006.7 |
| 20260507095415 | 40 | 9 | 0.0 | 0.0 | 0.00 | 0.00 | 0.00 | 93 | 1006.8 |
| 20260507094919 | 40 | 9 | 0.0 | 0.0 | 0.00 | 0.00 | 0.00 | 93 | 1006.8 |
| 20260507094416 | 40 | 9 | 0.0 | 0.0 | 0.00 | 0.00 | 0.00 | 93 | 1006.8 |
| 20260507093918 | 40 | 9 | 0.0 | 0.0 | 0.00 | 0.00 | 0.00 | 93 | 1006.8 |
| 20260507093416 | 40 | 9 | 0.0 | 0.0 | 0.00 | 0.00 | 0.00 | 93 | 1006.7 |
| 20260507092922 | 40 | 9 | 0.0 | 0.0 | 0.00 | 0.00 | 0.00 | 93 | 1006.5 |
| 20260507092415 | 40 | 9 | 0.0 | 0.0 | 0.00 | 0.00 | 0.00 | 93 | 1006.6 |
| 20260507091915 | 40 | 9 | 0.0 | 0.0 | 0.00 | 0.00 | 0.00 | 93 | 1006.7 |
| 20260507091418 | 40 | 9 | 0.0 | 0.0 | 0.00 | 0.00 | 0.00 | 93 | 1006.8 |
| 20260507090918 | 40 | 9 | 0.0 | 0.0 | 0.00 | 0.00 | 0.00 | 93 | 1006.7 |
| 20260507090418 | 40 | 9 | 0.0 | 0.0 | 0.00 | 0.00 | 0.00 | 94 | 1006.7 |
| 20260507085918 | 40 | 9 | 0.0 | 0.0 | 0.00 | 0.00 | 0.00 | 93 | 1006.7 |
| 20260507085418 | 40 | 9 | 0.0 | 0.0 | 0.00 | 0.00 | 0.00 | 93 | 1006.8 |
| 20260507084921 | 40 | 9 | 0.0 | 0.0 | 0.00 | 0.00 | 0.00 | 93 | 1006.8 |
| 20260507084415 | 40 | 9 | 0.0 | 0.0 | 0.00 | 0.00 | 0.00 | 93 | 1006.9 |
| 20260507083921 | 39 | 9 | 0.0 | 0.0 | 0.00 | 0.00 | 0.00 | 93 | 1006.9 |
| 20260507083415 | 39 | 9 | 0.0 | 0.0 | 0.00 | 0.00 | 0.00 | 93 | 1007.0 |
| 20260507082915 | 39 | 9 | 0.0 | 0.0 | 0.00 | 0.00 | 0.00 | 93 | 1007.1 |
| 20260507082418 | 39 | 9 | 0.0 | 0.0 | 0.00 | 0.00 | 0.00 | 93 | 1007.2 |
| 20260507081918 | 39 | 9 | 0.0 | 0.0 | 0.00 | 0.00 | 0.00 | 93 | 1007.2 |
| 20260507081415 | 39 | 9 | 0.0 | 0.0 | 0.00 | 0.00 | 0.00 | 93 | 1007.3 |
| 20260507080918 | 39 | 9 | 0.0 | 0.0 | 0.00 | 0.00 | 0.00 | 93 | 1007.2 |
| 20260507080419 | 39 | 9 | 0.0 | 0.0 | 0.00 | 0.00 | 0.00 | 93 | 1007.4 |
| 20260507075915 | 39 | 9 | 0.0 | 0.0 | 0.00 | 0.00 | 0.00 | 93 | 1007.3 |
| 20260507075415 | 39 | 9 | 0.0 | 0.0 | 0.00 | 0.00 | 0.00 | 93 | 1007.3 |
| 20260507074915 | 39 | 9 | 0.0 | 0.0 | 0.00 | 0.00 | 0.00 | 93 | 1007.4 |
| 20260507074421 | 39 | 9 | 0.0 | 0.0 | 0.00 | 0.00 | 0.00 | 93 | 1007.4 |
| 20260507073917 | 39 | 9 | 0.0 | 0.0 | 0.00 | 0.00 | 0.00 | 93 | 1007.5 |
| 20260507073415 | 39 | 9 | 0.0 | 0.0 | 0.00 | 0.00 | 0.00 | 93 | 1007.6 |
| 20260507072918 | 39 | 9 | 0.0 | 0.0 | 0.00 | 0.00 | 0.00 | 93 | 1007.5 |
| 20260507072421 | 39 | 9 | 0.0 | 0.0 | 0.00 | 0.00 | 0.00 | 93 | 1007.5 |
| 20260507071918 | 39 | 9 | 0.0 | 0.0 | 0.00 | 0.00 | 0.00 | 93 | 1007.4 |
| 20260507071415 | 39 | 9 | 0.0 | 0.0 | 0.00 | 0.00 | 0.00 | 93 | 1007.3 |
| 20260507070915 | 39 | 9 | 0.0 | 0.0 | 0.00 | 0.00 | 0.00 | 93 | 1007.3 |
| 20260507070415 | 39 | 9 | 0.0 | 0.0 | 0.00 | 0.00 | 0.00 | 93 | 1007.2 |
| 20260507065918 | 39 | 9 | 0.0 | 0.0 | 0.00 | 0.00 | 0.00 | 93 | 1007.1 |
| 20260507065415 | 39 | 9 | 0.0 | 0.0 | 0.00 | 0.00 | 0.00 | 93 | 1006.9 |
| 20260507064915 | 39 | 9 | 0.0 | 0.0 | 0.00 | 0.00 | 0.00 | 93 | 1006.9 |
| 20260507064415 | 39 | 9 | 0.0 | 0.0 | 0.00 | 0.00 | 0.00 | 93 | 1006.8 |
| 20260507063918 | 39 | 9 | 0.0 | 0.0 | 0.00 | 0.00 | 0.00 | 93 | 1006.7 |
| 20260507063415 | 39 | 9 | 0.0 | 0.0 | 0.00 | 0.00 | 0.00 | 93 | 1006.7 |
| 20260507062918 | 39 | 9 | 0.0 | 0.0 | 0.00 | 0.00 | 0.00 | 93 | 1006.8 |
| 20260507062415 | 39 | 9 | 0.0 | 0.0 | 0.00 | 0.00 | 0.00 | 93 | 1006.9 |
| 20260507061918 | 39 | 9 | 0.0 | 0.0 | 0.00 | 0.00 | 0.00 | 93 | 1006.9 |
| 20260507061414 | 39 | 9 | 0.0 | 0.0 | 0.00 | 0.00 | 0.00 | 93 | 1007.0 |
| 20260507060915 | 39 | 9 | 0.0 | 0.0 | 0.00 | 0.00 | 0.00 | 93 | 1007.0 |
| 20260507060418 | 39 | 9 | 0.0 | 0.0 | 0.00 | 0.00 | 0.00 | 93 | 1007.2 |
| 20260507055915 | 39 | 9 | 0.0 | 1.0 | 0.00 | 0.00 | 0.00 | 93 | 1007.3 |
| 20260507055414 | 39 | 9 | 0.0 | 1.0 | 0.00 | 0.00 | 0.00 | 93 | 1007.3 |
| 20260507054915 | 39 | 9 | 0.0 | 0.0 | 0.00 | 0.00 | 0.00 | 93 | 1007.2 |
| 20260507054418 | 39 | 9 | 0.0 | 0.0 | 0.00 | 0.00 | 0.00 | 93 | 1007.2 |
| 20260507053917 | 39 | 9 | 0.0 | 0.0 | 0.00 | 0.00 | 0.00 | 93 | 1007.3 |
| 20260507053421 | 39 | 9 | 0.0 | 0.0 | 0.00 | 0.00 | 0.00 | 93 | 1007.2 |
| 20260507052919 | 39 | 9 | 0.0 | 0.0 | 0.00 | 0.00 | 0.00 | 92 | 1007.3 |
| 20260507052420 | 39 | 9 | 0.0 | 0.0 | 0.00 | 0.00 | 0.00 | 92 | 1007.4 |
| 20260507051916 | 39 | 9 | 0.0 | 0.0 | 0.00 | 0.00 | 0.00 | 92 | 1007.4 |
| 20260507051414 | 39 | 9 | 0.0 | 0.0 | 0.00 | 0.00 | 0.00 | 92 | 1007.4 |
| 20260507050914 | 39 | 9 | 0.0 | 0.0 | 0.00 | 0.00 | 0.00 | 92 | 1007.5 |
| 20260507050420 | 40 | 9 | 0.0 | 0.0 | 0.00 | 0.00 | 0.00 | 92 | 1007.5 |
| 20260507045917 | 40 | 9 | 0.0 | 0.0 | 0.00 | 0.00 | 0.00 | 93 | 1007.6 |
| 20260507045414 | 40 | 9 | 0.0 | 0.0 | 0.00 | 0.00 | 0.00 | 93 | 1007.8 |
| 20260507044914 | 40 | 9 | 0.0 | 0.0 | 0.00 | 0.00 | 0.00 | 93 | 1007.9 |
| 20260507044418 | 40 | 9 | 0.0 | 0.0 | 0.00 | 0.00 | 0.00 | 93 | 1007.8 |
| 20260507043918 | 40 | 9 | 0.0 | 0.0 | 0.00 | 0.00 | 0.00 | 93 | 1007.8 |
| 20260507043416 | 40 | 9 | 0.0 | 0.0 | 0.00 | 0.00 | 0.00 | 93 | 1007.8 |
| 20260507042914 | 40 | 9 | 0.0 | 0.0 | 0.00 | 0.00 | 0.00 | 93 | 1007.8 |
| 20260507042417 | 40 | 9 | 0.0 | 0.0 | 0.00 | 0.00 | 0.00 | 93 | 1007.7 |
| 20260507041914 | 40 | 9 | 0.0 | 0.0 | 0.00 | 0.00 | 0.00 | 92 | 1007.7 |
| 20260507041414 | 40 | 9 | 0.0 | 0.0 | 0.00 | 0.00 | 0.00 | 93 | 1007.7 |
| 20260507040917 | 40 | 9 | 0.0 | 0.0 | 0.00 | 0.00 | 0.00 | 93 | 1007.8 |
| 20260507040417 | 40 | 9 | 0.0 | 0.0 | 0.00 | 0.00 | 0.00 | 93 | 1007.7 |
| 20260507035914 | 40 | 9 | 0.0 | 0.0 | 0.00 | 0.00 | 0.00 | 93 | 1007.7 |
| 20260507035420 | 40 | 9 | 0.0 | 0.0 | 0.00 | 0.00 | 0.00 | 93 | 1007.7 |
| 20260507034914 | 40 | 9 | 0.0 | 0.0 | 0.00 | 0.00 | 0.00 | 92 | 1007.7 |
| 20260507034414 | 40 | 9 | 0.0 | 0.0 | 0.00 | 0.00 | 0.00 | 92 | 1007.8 |
| 20260507033914 | 41 | 9 | 0.0 | 0.0 | 0.00 | 0.00 | 0.00 | 92 | 1007.8 |
| 20260507033415 | 41 | 9 | 0.0 | 0.0 | 0.00 | 0.00 | 0.00 | 92 | 1007.9 |
| 20260507032918 | 41 | 9 | 0.0 | 0.0 | 0.00 | 0.00 | 0.00 | 92 | 1007.9 |
| 20260507032415 | 41 | 9 | 0.0 | 0.0 | 0.00 | 0.00 | 0.00 | 92 | 1007.9 |
| 20260507031917 | 41 | 9 | 0.0 | 0.0 | 0.00 | 0.00 | 0.00 | 93 | 1007.9 |
| 20260507031417 | 41 | 9 | 0.0 | 0.0 | 0.00 | 0.00 | 0.00 | 93 | 1007.9 |
| 20260507030914 | 41 | 9 | 0.0 | 0.0 | 0.00 | 0.00 | 0.00 | 93 | 1008.0 |
| 20260507030414 | 41 | 9 | 0.0 | 0.0 | 0.00 | 0.00 | 0.00 | 93 | 1008.0 |
| 20260507025917 | 41 | 9 | 0.0 | 0.0 | 0.00 | 0.00 | 0.00 | 93 | 1008.0 |
| 20260507025415 | 41 | 9 | 0.0 | 0.0 | 0.00 | 0.00 | 0.00 | 93 | 1007.9 |
| 20260507024920 | 41 | 9 | 0.0 | 0.0 | 0.00 | 0.00 | 0.00 | 93 | 1008.0 |
| 20260507024414 | 41 | 9 | 0.0 | 0.0 | 0.00 | 0.00 | 0.00 | 93 | 1007.9 |
| 20260507023917 | 41 | 9 | 0.0 | 0.0 | 0.00 | 0.00 | 0.00 | 93 | 1007.9 |
| 20260507023414 | 41 | 9 | 0.0 | 0.0 | 0.00 | 0.00 | 0.00 | 93 | 1007.9 |
| 20260507022914 | 41 | 9 | 0.0 | 0.0 | 0.00 | 0.00 | 0.00 | 93 | 1007.9 |
| 20260507022414 | 42 | 9 | 0.0 | 0.0 | 0.00 | 0.00 | 0.00 | 93 | 1008.0 |
| 20260507021914 | 42 | 9 | 0.0 | 0.0 | 0.00 | 0.00 | 0.00 | 93 | 1007.8 |
| 20260507021417 | 42 | 9 | 0.0 | 0.0 | 0.00 | 0.00 | 0.00 | 93 | 1007.9 |
| 20260507020916 | 42 | 9 | 0.0 | 0.0 | 0.00 | 0.00 | 0.00 | 93 | 1008.0 |
| 20260507020415 | 42 | 9 | 0.0 | 0.0 | 0.00 | 0.00 | 0.00 | 93 | 1007.8 |
| 20260507015918 | 42 | 9 | 0.0 | 0.0 | 0.00 | 0.00 | 0.00 | 93 | 1007.7 |
| 20260507015423 | 42 | 9 | 0.0 | 0.0 | 0.00 | 0.00 | 0.00 | 93 | 1007.8 |
| 20260507014913 | 42 | 9 | 0.0 | 0.0 | 0.00 | 0.00 | 0.00 | 93 | 1008.1 |
| 20260507014413 | 42 | 9 | 0.0 | 0.0 | 0.00 | 0.00 | 0.00 | 93 | 1008.2 |
| 20260507013916 | 42 | 9 | 0.0 | 0.0 | 0.00 | 0.00 | 0.00 | 93 | 1008.3 |
| 20260507013413 | 42 | 9 | 0.0 | 0.0 | 0.00 | 0.00 | 0.00 | 93 | 1008.0 |
| 20260507012916 | 42 | 9 | 0.0 | 0.0 | 0.00 | 0.00 | 0.00 | 93 | 1008.0 |
| 20260507012422 | 42 | 9 | 0.0 | 0.0 | 0.00 | 0.00 | 0.00 | 93 | 1008.0 |
| 20260507011913 | 42 | 9 | 0.0 | 0.0 | 0.00 | 0.00 | 0.00 | 93 | 1008.0 |
| 20260507011413 | 42 | 9 | 0.0 | 0.0 | 0.00 | 0.00 | 0.00 | 93 | 1008.3 |
| 20260507010416 | 42 | 9 | 0.0 | 0.0 | 0.00 | 0.00 | 0.00 | 92 | 1008.0 |
| 20260507005918 | 42 | 9 | 0.0 | 0.0 | 0.00 | 0.00 | 0.00 | 92 | 1008.0 |
| 20260507005416 | 42 | 9 | 0.0 | 1.0 | 0.00 | 0.00 | 0.00 | 92 | 1008.0 |
| 20260507004913 | 42 | 9 | 0.0 | 0.0 | 0.00 | 0.00 | 0.00 | 93 | 1007.9 |
| 20260507004414 | 42 | 9 | 0.0 | 0.0 | 0.00 | 0.00 | 0.00 | 93 | 1007.8 |
| 20260507003917 | 42 | 9 | 0.0 | 0.0 | 0.00 | 0.00 | 0.00 | 93 | 1007.7 |
| 20260507003416 | 42 | 9 | 0.0 | 0.0 | 0.00 | 0.00 | 0.00 | 93 | 1007.7 |
| 20260507002916 | 42 | 9 | 0.0 | 0.0 | 0.00 | 0.00 | 0.00 | 93 | 1007.7 |
| 20260507002416 | 42 | 9 | 0.0 | 1.0 | 0.00 | 0.00 | 0.00 | 93 | 1007.6 |
| 20260507001914 | 42 | 8 | 0.0 | 1.0 | 0.00 | 0.00 | 0.00 | 92 | 1007.5 |
| 20260507001422 | 42 | 8 | 0.0 | 0.0 | 0.00 | 0.00 | 0.00 | 93 | 1007.4 |
| 20260507000913 | 42 | 8 | 0.0 | 0.0 | 0.00 | 0.00 | 0.00 | 93 | 1007.4 |
| 20260507000413 | 42 | 8 | 0.0 | 1.0 | 0.00 | 0.00 | 0.00 | 93 | 1007.2 |
| 20260506235917 | 42 | 10 | 0.0 | 0.0 | 0.00 | 0.00 | 0.00 | 93 | 1007.1 |
| 20260506235419 | 42 | 10 | 0.0 | 0.0 | 0.00 | 0.00 | 0.00 | 93 | 1006.9 |
| 20260506234913 | 42 | 10 | 0.0 | 0.0 | 0.00 | 0.00 | 0.00 | 93 | 1006.8 |
| 20260506234416 | 42 | 10 | 0.0 | 0.0 | 0.00 | 0.00 | 0.00 | 93 | 1006.7 |
| 20260506233916 | 42 | 10 | 0.0 | 0.0 | 0.00 | 0.00 | 0.00 | 93 | 1006.7 |
| 20260506233423 | 42 | 10 | 0.0 | 0.0 | 0.00 | 0.00 | 0.00 | 93 | 1006.7 |
| 20260506232913 | 42 | 10 | 0.0 | 0.0 | 0.00 | 0.00 | 0.00 | 93 | 1006.6 |
| 20260506232416 | 42 | 10 | 0.0 | 0.0 | 0.00 | 0.00 | 0.00 | 93 | 1006.6 |
| 20260506231913 | 42 | 10 | 0.0 | 0.0 | 0.00 | 0.00 | 0.00 | 92 | 1006.6 |
| 20260506231419 | 42 | 10 | 0.0 | 0.0 | 0.00 | 0.00 | 0.00 | 92 | 1006.5 |
| 20260506230913 | 42 | 10 | 0.0 | 0.0 | 0.00 | 0.00 | 0.00 | 92 | 1006.4 |
| 20260506230413 | 42 | 10 | 0.0 | 0.0 | 0.00 | 0.00 | 0.00 | 92 | 1006.4 |
| 20260506225916 | 42 | 10 | 0.0 | 0.0 | 0.00 | 0.00 | 0.00 | 92 | 1006.4 |
| 20260506225413 | 42 | 10 | 0.0 | 1.0 | 0.00 | 0.00 | 0.00 | 93 | 1006.4 |
| 20260506224922 | 42 | 10 | 0.0 | 0.0 | 0.00 | 0.00 | 0.00 | 93 | 1006.6 |
| 20260506224416 | 42 | 10 | 0.0 | 0.0 | 0.00 | 0.00 | 0.00 | 93 | 1006.6 |
| 20260506223913 | 42 | 10 | 0.0 | 0.0 | 0.00 | 0.00 | 0.00 | 92 | 1006.7 |
| 20260506223419 | 42 | 10 | 0.0 | 1.0 | 0.00 | 0.00 | 0.00 | 93 | 1006.6 |
| 20260506222913 | 42 | 10 | 0.0 | 0.0 | 0.00 | 0.00 | 0.00 | 93 | 1006.6 |
| 20260506222413 | 42 | 10 | 0.0 | 1.0 | 0.00 | 0.00 | 0.00 | 93 | 1006.4 |
| 20260506221916 | 42 | 10 | 0.0 | 4.0 | 0.00 | 0.00 | 0.00 | 92 | 1006.6 |
| 20260506221416 | 42 | 72 | 3.0 | 3.0 | 0.00 | 0.00 | 0.00 | 92 | 1006.5 |
| 20260506220912 | 42 | 346 | 1.0 | 2.0 | 0.00 | 0.00 | 0.00 | 92 | 1006.8 |
| 20260506220413 | 42 | 345 | 1.0 | 1.0 | 0.00 | 0.00 | 0.00 | 93 | 1006.7 |
| 20260506215916 | 42 | 347 | 0.0 | 5.0 | 0.00 | 0.00 | 0.00 | 92 | 1006.6 |
| 20260506215415 | 42 | 349 | 0.0 | 3.0 | 0.00 | 0.00 | 0.00 | 92 | 1006.6 |
| 20260506214914 | 42 | 349 | 1.0 | 2.0 | 0.00 | 0.00 | 0.00 | 93 | 1006.6 |
| 20260506214413 | 42 | 349 | 1.0 | 2.0 | 0.00 | 0.00 | 0.00 | 92 | 1006.5 |
| 20260506213912 | 42 | 350 | 0.0 | 1.0 | 0.00 | 0.00 | 0.00 | 92 | 1006.4 |
| 20260506213419 | 42 | 339 | 0.0 | 4.0 | 0.00 | 0.00 | 0.00 | 92 | 1006.5 |
| 20260506212918 | 42 | 341 | 0.0 | 2.0 | 0.00 | 0.00 | 0.00 | 92 | 1006.4 |
| 20260506212414 | 42 | 341 | 0.0 | 1.0 | 0.00 | 0.00 | 0.00 | 93 | 1006.3 |
| 20260506211913 | 42 | 340 | 0.0 | 3.0 | 0.00 | 0.00 | 0.00 | 92 | 1006.2 |
| 20260506211419 | 42 | 340 | 1.0 | 3.0 | 0.00 | 0.00 | 0.00 | 92 | 1006.1 |
| 20260506210912 | 42 | 341 | 0.0 | 2.0 | 0.00 | 0.00 | 0.00 | 92 | 1006.0 |
| 20260506210414 | 42 | 341 | 1.0 | 5.0 | 0.00 | 0.00 | 0.00 | 92 | 1006.1 |
| 20260506205917 | 42 | 10 | 1.0 | 2.0 | 0.00 | 0.00 | 0.00 | 92 | 1006.3 |
| 20260506205415 | 42 | 10 | 0.0 | 3.0 | 0.00 | 0.00 | 0.00 | 92 | 1006.4 |
| 20260506204912 | 42 | 15 | 1.0 | 2.0 | 0.00 | 0.00 | 0.00 | 92 | 1006.5 |
| 20260506204412 | 42 | 15 | 0.0 | 2.0 | 0.00 | 0.00 | 0.00 | 92 | 1006.4 |
| 20260506203912 | 42 | 15 | 0.0 | 3.0 | 0.00 | 0.00 | 0.00 | 92 | 1006.4 |
| 20260506203413 | 43 | 15 | 0.0 | 3.0 | 0.00 | 0.00 | 0.00 | 92 | 1006.3 |
| 20260506202915 | 43 | 16 | 0.0 | 2.0 | 0.00 | 0.00 | 0.00 | 92 | 1006.3 |
| 20260506202412 | 43 | 16 | 0.0 | 4.0 | 0.00 | 0.00 | 0.00 | 92 | 1006.3 |
| 20260506201912 | 43 | 352 | 0.0 | 3.0 | 0.00 | 0.00 | 0.00 | 92 | 1006.3 |
| 20260506201415 | 43 | 353 | 0.0 | 3.0 | 0.00 | 0.00 | 0.00 | 92 | 1006.2 |
| 20260506200918 | 43 | 353 | 0.0 | 1.0 | 0.00 | 0.00 | 0.00 | 92 | 1006.2 |
| 20260506200416 | 43 | 353 | 0.0 | 2.0 | 0.00 | 0.00 | 0.00 | 92 | 1006.2 |
| 20260506195912 | 43 | 353 | 2.0 | 4.0 | 0.00 | 0.00 | 0.00 | 92 | 1006.2 |
| 20260506195415 | 43 | 355 | 0.0 | 2.0 | 0.00 | 0.00 | 0.00 | 92 | 1006.0 |
| 20260506194912 | 43 | 355 | 0.0 | 2.0 | 0.00 | 0.00 | 0.00 | 92 | 1006.0 |
| 20260506194415 | 43 | 355 | 0.0 | 2.0 | 0.00 | 0.00 | 0.00 | 92 | 1006.0 |
| 20260506193915 | 43 | 355 | 0.0 | 2.0 | 0.00 | 0.00 | 0.00 | 92 | 1006.0 |
| 20260506193412 | 43 | 354 | 0.0 | 1.0 | 0.00 | 0.00 | 0.00 | 92 | 1006.0 |
| 20260506192913 | 43 | 354 | 0.0 | 3.0 | 0.00 | 0.00 | 0.00 | 92 | 1005.9 |
| 20260506192412 | 43 | 357 | 0.0 | 2.0 | 0.00 | 0.00 | 0.00 | 92 | 1005.8 |
| 20260506191913 | 43 | 356 | 1.0 | 2.0 | 0.00 | 0.00 | 0.00 | 93 | 1005.8 |
| 20260506191412 | 43 | 356 | 0.0 | 0.0 | 0.00 | 0.00 | 0.00 | 93 | 1005.8 |
| 20260506190916 | 43 | 356 | 0.0 | 1.0 | 0.00 | 0.00 | 0.00 | 92 | 1005.7 |
| 20260506190412 | 42 | 356 | 0.0 | 2.0 | 0.00 | 0.00 | 0.00 | 92 | 1005.8 |
| 20260506185915 | 42 | 356 | 0.0 | 0.0 | 0.00 | 0.00 | 0.00 | 92 | 1005.9 |
| 20260506185418 | 42 | 356 | 0.0 | 3.0 | 0.00 | 0.00 | 0.00 | 92 | 1006.0 |
| 20260506184912 | 42 | 356 | 0.0 | 1.0 | 0.00 | 0.00 | 0.00 | 92 | 1006.0 |
| 20260506184413 | 42 | 357 | 0.0 | 1.0 | 0.00 | 0.00 | 0.00 | 92 | 1006.2 |